QPF
0.00 0.00 0.00 0.00 0.00 0.00 0.00 0.00 0.00 0.00 0.00 0.00 0.00 0.00 0.00 0.00 0.00 0.00 0.00 0.00 0.00 0.00 0.00 0.00 0.00 0.00 0.00 0.00 0.00 0.00 0.00 0.00 0.00 0.00 0.00 0.00 0.01 0.10 0.08 0.10 0.22 0.12 0.01
0.00 0.00 0.00 0.00 0.00 0.00 0.00 0.00 0.00 0.00 0.00 0.00 0.00 0.00 0.00 0.00 0.00 0.00 0.00 0.00 0.00 0.00 0.00 0.00 0.00 0.00 0.00 0.00 0.00 0.00 0.00 0.00 0.00 0.00 0.00 0.00 0.00 0.02 0.07 0.04 0.12 0.25 0.08
0.00 0.00 0.00 0.00 0.00 0.00 0.00 0.00 0.00 0.00 0.00 0.00 0.00 0.00 0.00 0.00 0.00 0.00 0.00 0.00 0.00 0.00 0.00 0.00 0.00 0.00 0.00 0.00 0.00 0.00 0.00 0.00 0.00 0.00 0.00 0.00 0.00 0.00 0.02 0.03 0.04 0.09 0.14
0.00 0.00 0.00 0.00 0.00 0.00 0.00 0.00 0.00 0.00 0.00 0.00 0.00 0.00 0.00 0.00 0.00 0.00 0.00 0.00 0.00 0.00 0.00 0.00 0.00 0.00 0.00 0.00 0.00 0.00 0.00 0.00 0.00 0.00 0.00 0.00 0.00 0.00 0.00 0.02 0.03 0.06 0.10
0.00 0.00 0.00 0.00 0.00 0.00 0.00 0.00 0.00 0.00 0.00 0.00 0.00 0.00 0.00 0.00 0.00 0.00 0.00 0.00 0.00 0.00 0.00 0.00 0.00 0.00 0.00 0.00 0.00 0.00 0.00 0.00 0.00 0.00 0.00 0.00 0.00 0.00 0.00 0.00 0.01 0.02 0.07
0.00 0.00 0.00 0.00 0.00 0.00 0.00 0.00 0.00 0.00 0.00 0.00 0.00 0.00 0.00 0.00 0.00 0.00 0.00 0.00 0.00 0.00 0.00 0.00 0.00 0.00 0.00 0.00 0.00 0.00 0.00 0.00 0.00 0.00 0.00 0.00 0.00 0.00 0.00 0.00 0.00 0.01 0.04
0.00 0.00 0.00 0.00 0.00 0.00 0.00 0.00 0.00 0.00 0.00 0.00 0.00 0.00 0.00 0.00 0.00 0.00 0.00 0.00 0.00 0.00 0.00 0.00 0.00 0.01 0.01 0.01 0.00 0.00 0.00 0.00 0.00 0.00 0.00 0.00 0.00 0.00 0.00 0.00 0.01 0.01 0.03
0.00 0.00 0.00 0.00 0.00 0.00 0.00 0.00 0.00 0.00 0.00 0.00 0.00 0.00 0.00 0.00 0.00 0.00 0.00 0.00 0.00 0.00 0.00 0.00 0.00 0.00 0.00 0.00 0.00 0.00 0.00 0.00 0.00 0.00 0.00 0.00 0.00 0.00 0.00 0.00 0.00 0.01 0.02
0.00 0.00 0.00 0.00 0.00 0.00 0.00 0.00 0.00 0.00 0.00 0.00 0.00 0.00 0.00 0.00 0.00 0.00 0.00 0.00 0.00 0.00 0.00 0.00 0.00 0.00 0.00 0.00 0.00 0.00 0.00 0.00 0.00 0.00 0.00 0.00 0.00 0.01 0.00 0.00 0.00 0.00 0.01
0.00 0.00 0.00 0.00 0.00 0.00 0.00 0.00 0.00 0.00 0.00 0.00 0.00 0.00 0.00 0.00 0.00 0.00 0.00 0.00 0.00 0.00 0.00 0.00 0.00 0.00 0.00 0.00 0.00 0.00 0.00 0.00 0.00 0.00 0.00 0.00 0.00 0.01 0.02 0.02 0.00 0.00 0.00
0.00 0.00 0.00 0.00 0.00 0.00 0.00 0.00 0.00 0.00 0.00 0.00 0.00 0.00 0.00 0.00 0.00 0.00 0.00 0.00 0.00 0.00 0.00 0.00 0.00 0.00 0.00 0.00 0.00 0.00 0.00 0.00 0.00 0.00 0.00 0.00 0.01 0.04 0.04 0.02 0.01 0.02 0.01
0.00 0.00 0.00 0.00 0.00 0.00 0.00 0.00 0.00 0.00 0.00 0.00 0.00 0.00 0.00 0.00 0.00 0.00 0.00 0.00 0.00 0.00 0.00 0.00 0.00 0.00 0.00 0.00 0.00 0.00 0.00 0.00 0.00 0.00 0.00 0.00 0.00 0.02 0.07 0.05 0.03 0.03 0.02
0.00 0.00 0.00 0.00 0.00 0.00 0.00 0.00 0.00 0.00 0.00 0.00 0.00 0.00 0.00 0.00 0.00 0.00 0.00 0.00 0.00 0.00 0.00 0.00 0.00 0.00 0.00 0.00 0.00 0.00 0.00 0.00 0.00 0.00 0.00 0.00 0.00 0.02 0.07 0.09 0.03 0.03 0.03
0.00 0.00 0.00 0.00 0.00 0.00 0.00 0.00 0.00 0.00 0.00 0.00 0.00 0.00 0.00 0.00 0.00 0.00 0.00 0.00 0.00 0.00 0.00 0.00 0.00 0.00 0.00 0.00 0.00 0.00 0.00 0.00 0.00 0.00 0.00 0.00 0.01 0.02 0.03 0.10 0.03 0.00 0.02
0.00 0.00 0.00 0.00 0.00 0.00 0.00 0.00 0.00 0.00 0.00 0.00 0.00 0.00 0.00 0.00 0.00 0.00 0.00 0.00 0.00 0.00 0.00 0.00 0.00 0.00 0.00 0.00 0.00 0.00 0.00 0.00 0.00 0.00 0.00 0.00 0.01 0.03 0.08 0.08 0.02 0.00 0.00
0.00 0.00 0.00 0.00 0.00 0.00 0.00 0.00 0.00 0.00 0.00 0.00 0.00 0.00 0.00 0.00 0.00 0.00 0.00 0.00 0.00 0.00 0.00 0.00 0.00 0.00 0.00 0.00 0.00 0.00 0.00 0.00 0.00 0.01 0.00 0.01 0.03 0.02 0.04 0.06 0.06 0.01 0.00
0.00 0.00 0.00 0.00 0.00 0.00 0.00 0.00 0.00 0.00 0.00 0.00 0.00 0.00 0.00 0.00 0.00 0.00 0.00 0.00 0.00 0.00 0.00 0.00 0.00 0.00 0.00 0.00 0.00 0.00 0.00 0.00 0.00 0.00 0.01 0.02 0.00 0.01 0.01 0.02 0.03 0.02 0.00
0.00 0.00 0.00 0.00 0.00 0.00 0.00 0.00 0.00 0.00 0.00 0.00 0.00 0.00 0.00 0.00 0.00 0.00 0.00 0.00 0.00 0.00 0.00 0.00 0.00 0.00 0.00 0.00 0.00 0.00 0.00 0.00 0.00 0.00 0.00 0.02 0.01 0.00 0.01 0.02 0.02 0.01 0.00
0.00 0.00 0.00 0.00 0.00 0.00 0.00 0.00 0.00 0.00 0.00 0.00 0.00 0.00 0.00 0.02 0.00 0.00 0.00 0.00 0.00 0.00 0.00 0.00 0.01 0.01 0.00 0.00 0.01 0.01 0.00 0.00 0.00 0.00 0.00 0.00 0.01 0.01 0.00 0.01 0.01 0.01 0.00
0.00 0.00 0.00 0.00 0.00 0.00 0.00 0.00 0.00 0.00 0.00 0.00 0.00 0.04 0.01 0.00 0.01 0.00 0.00 0.00 0.00 0.00 0.02 0.05 0.01 0.05 0.00 0.04 0.05 0.00 0.00 0.00 0.00 0.00 0.00 0.00 0.03 0.03 0.00 0.00 0.00 0.00 0.00
0.00 0.00 0.00 0.00 0.00 0.00 0.00 0.00 0.00 0.00 0.00 0.00 0.02 0.10 0.08 0.03 0.00 0.00 0.00 0.00 0.00 0.00 0.02 0.13 0.06 0.06 0.08 0.14 0.06 0.01 0.03 0.02 0.00 0.00 0.00 0.00 0.01 0.02 0.01 0.00 0.00 0.00 0.01
0.00 0.00 0.00 0.00 0.00 0.00 0.00 0.00 0.00 0.00 0.00 0.00 0.00 0.09 0.08 0.02 0.00 0.00 0.00 0.00 0.00 0.01 0.04 0.08 0.02 0.03 0.05 0.05 0.04 0.04 0.03 0.03 0.00 0.00 0.00 0.00 0.00 0.00 0.00 0.00 0.00 0.01 0.02
0.00 0.00 0.00 0.00 0.00 0.00 0.00 0.00 0.00 0.00 0.00 0.00 0.06 0.05 0.01 0.00 0.00 0.00 0.00 0.00 0.00 0.00 0.00 0.00 0.00 0.02 0.02 0.00 0.00 0.00 0.00 0.00 0.00 0.00 0.00 0.00 0.00 0.00 0.00 0.00 0.00 0.01 0.00
0.00 0.00 0.00 0.00 0.00 0.00 0.00 0.00 0.00 0.00 0.00 0.00 0.00 0.00 0.00 0.00 0.00 0.00 0.00 0.00 0.00 0.00 0.00 0.00 0.00 0.00 0.00 0.00 0.00 0.00 0.00 0.01 0.01 0.00 0.00 0.00 0.00 0.00 0.00 0.00 0.01 0.01 0.00
0.00 0.00 0.00 0.00 0.00 0.00 0.00 0.00 0.00 0.00 0.00 0.00 0.00 0.00 0.00 0.00 0.00 0.00 0.00 0.00 0.00 0.00 0.00 0.00 0.00 0.00 0.00 0.00 0.00 0.00 0.00 0.00 0.00 0.01 0.00 0.00 0.00 0.02 0.02 0.04 0.01 0.00 0.01
0.00 0.00 0.00 0.00 0.00 0.00 0.00 0.00 0.00 0.00 0.00 0.00 0.00 0.00 0.00 0.00 0.00 0.00 0.00 0.00 0.00 0.00 0.00 0.00 0.00 0.00 0.00 0.00 0.00 0.00 0.00 0.00 0.00 0.00 0.00 0.00 0.00 0.04 0.02 0.04 0.00 0.01 0.02
MSLP
1008.20 1008.18 1008.67 1009.18 1009.49 1009.58 1009.74 1010.05 1010.49 1010.87 1011.21 1011.38 1011.63 1011.90 1012.23 1012.47 1012.66 1012.95 1013.21 1013.43 1013.64 1013.64 1013.65 1013.73 1013.85 1013.92 1013.87 1013.86 1013.90 1014.04 1014.04 1013.97 1013.93 1013.89 1013.92 1013.92 1013.87 1013.67 1013.64 1013.57 1013.62 1013.98 1013.83
1006.44 1007.61 1008.49 1008.87 1009.22 1009.43 1009.76 1009.99 1010.53 1011.01 1011.21 1011.37 1011.66 1011.93 1012.30 1012.56 1012.83 1012.96 1013.19 1013.44 1013.68 1013.76 1013.68 1013.72 1013.83 1013.92 1013.98 1013.86 1013.85 1013.90 1014.14 1014.15 1014.08 1013.99 1013.94 1013.91 1013.94 1013.92 1013.74 1013.59 1013.61 1013.88 1014.00
1006.63 1007.53 1008.50 1008.91 1009.19 1009.44 1009.84 1010.02 1010.41 1010.98 1011.26 1011.49 1011.88 1012.08 1012.25 1012.51 1012.78 1012.97 1013.10 1013.36 1013.56 1013.66 1013.79 1013.74 1013.77 1013.90 1013.97 1013.92 1013.81 1013.87 1014.05 1014.16 1014.20 1014.00 1013.89 1013.90 1013.98 1013.82 1013.68 1013.71 1013.62 1013.79 1014.00
1006.78 1007.39 1007.97 1008.39 1008.70 1009.01 1009.52 1009.77 1010.15 1010.66 1011.18 1011.50 1011.80 1012.01 1012.14 1012.38 1012.65 1012.81 1012.99 1013.26 1013.41 1013.53 1013.56 1013.70 1013.70 1013.75 1013.88 1013.82 1013.74 1013.82 1013.95 1014.04 1014.01 1013.93 1013.89 1013.95 1013.94 1013.66 1013.52 1013.53 1013.59 1013.77 1013.97
1007.18 1007.18 1007.39 1007.77 1008.19 1008.64 1009.22 1009.42 1009.79 1010.24 1010.86 1011.27 1011.46 1011.75 1011.96 1012.19 1012.40 1012.53 1012.69 1012.92 1013.18 1013.26 1013.34 1013.48 1013.52 1013.60 1013.61 1013.57 1013.60 1013.66 1013.78 1013.91 1013.90 1013.77 1013.84 1014.01 1014.04 1013.54 1012.95 1013.19 1013.44 1013.62 1013.88
1006.87 1006.90 1007.06 1007.41 1007.87 1008.13 1008.65 1009.09 1009.17 1009.59 1010.20 1010.72 1011.06 1011.39 1011.67 1011.82 1012.02 1012.20 1012.47 1012.67 1012.77 1012.90 1013.07 1013.24 1013.30 1013.33 1013.39 1013.39 1013.43 1013.53 1013.66 1013.75 1013.82 1013.83 1013.81 1013.83 1013.73 1013.37 1012.89 1013.02 1013.37 1013.64 1013.86
1006.57 1006.67 1006.96 1007.34 1007.65 1007.89 1008.36 1008.77 1009.11 1009.16 1009.55 1010.08 1010.55 1010.96 1011.35 1011.51 1011.74 1011.93 1012.19 1012.33 1012.47 1012.61 1012.85 1012.94 1012.99 1013.10 1013.22 1013.21 1013.23 1013.33 1013.47 1013.55 1013.58 1013.74 1013.70 1013.75 1013.55 1013.20 1012.82 1012.95 1013.45 1013.60 1013.79
1005.49 1006.16 1006.49 1006.92 1007.12 1007.40 1007.87 1008.28 1008.71 1009.09 1009.13 1009.60 1010.07 1010.50 1010.92 1011.32 1011.56 1011.80 1011.94 1012.07 1012.19 1012.38 1012.57 1012.65 1012.81 1012.91 1012.90 1012.96 1013.07 1013.15 1013.24 1013.33 1013.38 1013.45 1013.51 1013.56 1013.32 1013.04 1012.89 1012.97 1013.20 1013.43 1013.71
1005.30 1005.95 1006.33 1006.62 1007.03 1007.31 1007.58 1007.86 1008.05 1008.52 1008.70 1008.99 1009.52 1009.99 1010.39 1010.92 1011.43 1011.68 1011.77 1011.89 1012.00 1012.22 1012.31 1012.40 1012.53 1012.61 1012.62 1012.72 1012.80 1012.92 1013.00 1013.06 1013.22 1013.40 1013.42 1013.38 1013.17 1013.09 1012.96 1013.06 1012.96 1013.18 1013.48
1005.11 1005.67 1005.90 1006.15 1006.74 1007.04 1007.27 1007.54 1007.74 1007.93 1008.36 1008.38 1008.75 1009.43 1009.96 1010.46 1011.01 1011.47 1011.63 1011.70 1011.83 1011.99 1012.00 1012.13 1012.19 1012.29 1012.32 1012.50 1012.67 1012.82 1012.85 1012.90 1013.02 1013.18 1013.28 1013.32 1013.07 1012.94 1012.85 1013.01 1012.89 1013.12 1013.37
1005.15 1005.23 1005.65 1005.92 1006.23 1006.63 1006.88 1007.21 1007.75 1008.07 1008.35 1008.54 1008.57 1008.90 1009.62 1010.12 1010.63 1011.11 1011.41 1011.49 1011.63 1011.71 1011.75 1011.86 1012.00 1012.06 1012.13 1012.24 1012.42 1012.59 1012.69 1012.83 1012.93 1013.10 1013.07 1013.03 1012.86 1012.77 1012.64 1012.70 1012.64 1012.99 1013.28
1004.53 1004.96 1005.30 1005.46 1005.88 1006.48 1006.75 1007.08 1007.48 1007.93 1008.35 1008.52 1008.61 1008.68 1009.22 1009.80 1010.31 1010.70 1011.06 1011.19 1011.38 1011.51 1011.62 1011.62 1011.73 1011.89 1012.00 1012.16 1012.35 1012.41 1012.52 1012.68 1012.80 1012.81 1012.80 1012.71 1012.69 1012.58 1012.42 1012.58 1012.52 1012.79 1013.15
1002.91 1003.61 1004.20 1004.55 1005.14 1005.76 1006.27 1006.77 1007.14 1007.52 1007.76 1008.21 1008.38 1008.70 1008.96 1009.56 1010.14 1010.51 1010.84 1010.89 1011.15 1011.35 1011.56 1011.48 1011.64 1011.82 1011.86 1012.08 1012.23 1012.30 1012.29 1012.39 1012.50 1012.47 1012.36 1012.36 1012.42 1012.33 1012.26 1012.58 1012.65 1012.71 1013.07
1001.88 1002.51 1002.91 1003.65 1004.48 1004.91 1005.51 1005.93 1006.47 1007.10 1007.27 1007.86 1007.96 1008.45 1008.93 1009.45 1010.03 1010.46 1010.61 1010.73 1011.00 1011.17 1011.43 1011.51 1011.68 1011.73 1011.81 1011.76 1011.82 1011.88 1011.95 1011.89 1011.91 1012.12 1012.11 1012.07 1012.03 1012.04 1012.12 1012.33 1012.74 1012.72 1012.89
1001.74 1001.76 1002.08 1002.71 1003.54 1004.04 1004.60 1005.31 1005.78 1006.20 1006.71 1007.16 1007.52 1008.06 1008.55 1009.09 1009.58 1010.01 1010.33 1010.47 1010.82 1011.15 1011.33 1011.44 1011.57 1011.65 1011.67 1011.65 1011.53 1011.53 1011.57 1011.46 1011.50 1011.70 1011.74 1011.67 1011.57 1011.54 1011.96 1012.28 1012.45 1012.57 1012.76
1000.97 1001.03 1001.55 1002.06 1002.51 1003.40 1003.76 1004.19 1004.59 1005.19 1005.89 1006.53 1006.98 1007.47 1007.95 1008.31 1008.92 1009.50 1009.88 1010.29 1010.52 1010.74 1010.90 1011.03 1011.24 1011.34 1011.35 1011.45 1011.44 1011.26 1011.33 1011.26 1011.27 1011.30 1011.22 1011.25 1011.26 1011.49 1011.89 1012.17 1012.37 1012.54 1012.61
1000.36 1000.21 1000.58 1001.05 1001.67 1002.35 1002.67 1003.19 1003.94 1004.43 1005.37 1006.03 1006.48 1006.89 1007.28 1007.60 1008.22 1008.81 1009.26 1009.76 1010.11 1010.39 1010.71 1010.88 1010.97 1011.14 1011.31 1011.29 1011.32 1011.20 1011.11 1010.99 1011.14 1011.03 1010.92 1011.03 1011.00 1011.27 1011.62 1011.89 1012.08 1012.38 1012.49
999.75 999.73 999.67 1000.24 1000.91 1001.55 1002.00 1002.42 1003.09 1003.66 1004.49 1005.32 1005.88 1006.37 1006.73 1006.95 1007.49 1008.37 1009.03 1009.49 1009.61 1010.09 1010.35 1010.69 1010.85 1011.04 1011.11 1011.14 1011.12 1010.99 1011.03 1010.95 1011.01 1010.96 1010.90 1010.90 1011.07 1011.18 1011.39 1011.66 1011.90 1012.18 1012.40
998.69 999.04 999.63 1000.14 1000.36 1000.67 1001.30 1001.90 1002.46 1003.10 1003.93 1004.77 1005.45 1006.01 1006.33 1006.72 1007.29 1007.91 1008.72 1009.15 1009.18 1009.76 1010.21 1010.41 1010.57 1010.77 1010.83 1010.88 1010.91 1010.89 1010.83 1010.82 1010.80 1010.72 1010.87 1010.79 1010.96 1011.09 1011.39 1011.45 1011.56 1011.92 1012.27
998.34 998.55 999.09 999.50 999.87 1000.49 1001.26 1001.86 1002.57 1003.20 1003.83 1004.40 1005.08 1005.64 1006.07 1006.56 1007.03 1007.86 1008.46 1008.70 1009.06 1009.72 1010.08 1010.34 1010.37 1010.33 1010.35 1010.40 1010.69 1010.79 1010.68 1010.50 1010.51 1010.75 1010.63 1010.53 1010.67 1010.92 1011.12 1011.40 1011.41 1011.70 1011.91
997.97 998.44 999.04 999.34 999.81 1000.35 1001.03 1001.52 1002.50 1003.00 1003.82 1004.43 1004.79 1005.37 1006.14 1006.35 1006.92 1007.67 1008.17 1008.48 1009.05 1009.39 1009.57 1009.86 1010.11 1010.11 1010.17 1010.29 1010.66 1010.67 1010.71 1010.52 1010.54 1010.53 1010.49 1010.60 1010.82 1010.84 1011.08 1011.17 1011.36 1011.50 1011.72
997.28 997.61 998.25 998.74 999.13 999.44 1000.13 1000.81 1001.83 1002.76 1003.76 1004.16 1004.86 1005.52 1005.97 1006.50 1006.92 1007.48 1007.75 1008.29 1008.85 1009.19 1009.41 1009.73 1009.81 1009.98 1010.05 1010.15 1010.47 1010.78 1010.89 1010.86 1010.49 1010.21 1010.37 1010.46 1010.59 1010.84 1010.99 1010.91 1011.07 1011.30 1011.49
997.41 997.66 997.88 998.43 998.99 999.43 999.80 1000.91 1002.15 1003.05 1004.02 1004.74 1005.35 1005.53 1005.81 1006.32 1006.78 1007.23 1007.69 1008.17 1008.55 1008.88 1009.18 1009.19 1009.30 1009.58 1009.82 1009.95 1010.01 1010.27 1010.74 1010.57 1010.57 1010.29 1010.23 1010.22 1010.32 1010.56 1010.78 1010.83 1010.80 1011.06 1011.35
997.06 997.76 998.15 998.66 999.11 1000.01 999.98 1000.73 1001.82 1003.04 1003.97 1004.42 1004.97 1005.38 1005.97 1006.47 1006.79 1007.04 1007.36 1007.93 1008.27 1008.61 1008.78 1008.85 1008.92 1009.25 1009.54 1009.87 1010.05 1009.99 1010.18 1010.23 1010.61 1010.67 1010.39 1010.23 1010.33 1010.37 1010.48 1010.73 1010.76 1010.83 1011.07
997.19 997.77 998.40 999.00 999.60 1000.35 1000.37 1001.01 1002.14 1003.23 1003.83 1004.35 1004.95 1005.65 1006.21 1006.55 1006.66 1007.00 1007.43 1007.78 1008.08 1008.31 1008.43 1008.47 1008.69 1008.96 1009.20 1009.42 1009.65 1009.81 1010.09 1010.36 1010.48 1010.75 1010.81 1010.54 1010.52 1010.56 1010.67 1010.68 1010.81 1010.64 1010.71
997.49 997.89 998.76 999.39 1000.17 1000.48 1000.86 1001.69 1002.40 1003.27 1004.05 1004.67 1005.36 1005.95 1006.43 1006.64 1006.86 1007.10 1007.41 1007.64 1007.82 1008.05 1008.16 1008.17 1008.29 1008.57 1008.81 1009.00 1009.28 1009.48 1009.70 1010.05 1010.18 1010.37 1010.68 1010.61 1010.75 1010.99 1010.98 1010.80 1010.74 1010.95 1010.83
Thickness
5822 5823 5817 5811 5806 5804 5800 5794 5787 5780 5773 5770 5766 5762 5758 5756 5752 5746 5741 5737 5733 5733 5732 5729 5726 5725 5725 5726 5727 5725 5725 5727 5729 5731 5730 5730 5731 5735 5736 5739 5740 5739 5741
5838 5828 5816 5812 5807 5803 5797 5792 5784 5777 5772 5768 5763 5759 5754 5750 5746 5743 5738 5733 5728 5725 5726 5724 5721 5719 5717 5719 5720 5720 5718 5719 5721 5724 5725 5726 5726 5726 5731 5735 5737 5736 5736
5834 5823 5813 5808 5805 5800 5794 5790 5783 5774 5768 5764 5758 5754 5751 5747 5743 5739 5735 5730 5725 5721 5717 5717 5716 5713 5711 5712 5714 5714 5712 5712 5713 5717 5720 5721 5722 5723 5725 5729 5733 5734 5733
5828 5821 5817 5810 5803 5798 5793 5789 5782 5774 5766 5761 5755 5752 5749 5745 5739 5736 5731 5727 5722 5718 5715 5711 5710 5708 5706 5706 5708 5708 5706 5706 5707 5710 5713 5715 5717 5720 5722 5724 5727 5728 5728
5822 5820 5819 5813 5808 5802 5792 5788 5782 5774 5765 5759 5755 5750 5746 5741 5736 5733 5730 5726 5720 5715 5711 5707 5704 5702 5701 5702 5701 5702 5702 5701 5701 5704 5706 5707 5709 5717 5723 5721 5723 5723 5724
5821 5819 5818 5814 5809 5805 5793 5785 5782 5776 5767 5760 5754 5749 5743 5739 5734 5730 5725 5721 5717 5713 5708 5703 5701 5698 5696 5696 5697 5696 5695 5696 5696 5698 5700 5701 5705 5712 5717 5718 5718 5718 5718
5819 5819 5815 5812 5807 5801 5791 5785 5779 5776 5769 5762 5754 5747 5741 5736 5731 5726 5720 5717 5713 5710 5704 5701 5698 5695 5693 5692 5691 5691 5691 5690 5691 5692 5694 5696 5701 5707 5712 5712 5710 5711 5713
5827 5822 5816 5810 5806 5801 5792 5785 5778 5772 5769 5762 5755 5747 5740 5732 5728 5721 5716 5712 5710 5705 5700 5698 5695 5692 5691 5690 5688 5685 5685 5685 5686 5688 5689 5692 5697 5702 5705 5706 5706 5706 5708
5823 5818 5810 5807 5803 5801 5793 5787 5782 5774 5771 5764 5755 5747 5740 5732 5724 5718 5713 5709 5705 5700 5698 5695 5691 5689 5689 5687 5685 5683 5681 5680 5681 5681 5683 5687 5692 5695 5699 5700 5702 5704 5704
5815 5809 5805 5806 5797 5796 5795 5788 5781 5775 5768 5764 5757 5748 5739 5731 5723 5715 5710 5706 5701 5697 5695 5691 5689 5688 5686 5682 5680 5678 5677 5675 5675 5675 5677 5680 5685 5689 5692 5694 5698 5699 5699
5802 5803 5801 5796 5796 5790 5791 5785 5774 5768 5762 5758 5755 5748 5738 5730 5722 5714 5708 5704 5699 5695 5693 5689 5686 5684 5681 5678 5675 5674 5671 5670 5669 5668 5671 5676 5679 5683 5688 5690 5694 5695 5695
5803 5801 5797 5795 5794 5786 5782 5778 5772 5764 5757 5753 5749 5745 5738 5729 5721 5713 5706 5701 5696 5692 5689 5687 5685 5680 5677 5673 5670 5667 5666 5665 5664 5664 5667 5671 5673 5677 5683 5684 5688 5690 5690
5819 5811 5804 5801 5794 5788 5781 5776 5769 5763 5758 5751 5747 5740 5735 5726 5718 5711 5705 5700 5694 5688 5684 5683 5681 5677 5673 5668 5665 5663 5661 5660 5660 5661 5663 5666 5667 5672 5677 5678 5679 5683 5684
5819 5813 5808 5802 5794 5789 5781 5777 5770 5762 5757 5749 5745 5737 5730 5723 5715 5708 5702 5698 5692 5685 5681 5678 5676 5672 5668 5664 5662 5660 5658 5658 5658 5657 5659 5661 5664 5667 5671 5673 5672 5677 5679
5808 5807 5804 5801 5795 5788 5781 5775 5769 5763 5756 5748 5742 5734 5727 5721 5713 5706 5700 5695 5687 5680 5676 5674 5671 5667 5664 5660 5659 5657 5656 5656 5655 5655 5656 5658 5661 5664 5665 5667 5670 5672 5676
5806 5804 5799 5799 5795 5787 5782 5777 5771 5765 5756 5747 5740 5733 5727 5721 5714 5706 5698 5691 5684 5677 5672 5669 5666 5663 5660 5656 5654 5653 5652 5652 5652 5653 5656 5657 5657 5659 5660 5662 5665 5667 5670
5803 5804 5797 5799 5795 5787 5784 5779 5771 5765 5755 5746 5740 5732 5727 5722 5715 5707 5697 5688 5681 5673 5666 5661 5657 5655 5652 5651 5648 5648 5648 5648 5648 5649 5652 5654 5655 5656 5656 5658 5661 5663 5666
5801 5800 5800 5797 5793 5786 5782 5778 5771 5765 5756 5746 5739 5731 5726 5722 5715 5703 5693 5685 5678 5668 5662 5655 5649 5644 5642 5641 5641 5641 5641 5642 5643 5644 5647 5648 5649 5651 5653 5655 5657 5659 5661
5802 5798 5791 5789 5787 5786 5780 5775 5769 5762 5754 5745 5736 5729 5723 5718 5710 5702 5690 5679 5674 5665 5656 5649 5643 5638 5635 5634 5633 5633 5634 5635 5636 5640 5641 5644 5645 5647 5648 5651 5654 5656 5657
5797 5797 5791 5786 5784 5779 5772 5766 5758 5753 5746 5740 5732 5725 5719 5712 5705 5695 5683 5676 5668 5658 5649 5641 5638 5633 5631 5627 5625 5624 5626 5629 5631 5632 5636 5640 5641 5643 5645 5646 5650 5653 5656
5791 5788 5781 5778 5775 5771 5765 5758 5750 5745 5738 5731 5727 5719 5711 5705 5694 5684 5676 5671 5662 5655 5648 5639 5633 5629 5625 5621 5616 5616 5617 5621 5624 5627 5631 5634 5635 5637 5639 5643 5646 5650 5652
5792 5787 5781 5775 5771 5770 5766 5759 5749 5741 5730 5726 5717 5709 5704 5697 5690 5681 5674 5666 5658 5649 5642 5634 5630 5624 5619 5616 5611 5609 5608 5611 5618 5624 5625 5629 5631 5634 5637 5640 5643 5646 5649
5779 5778 5776 5771 5766 5762 5761 5752 5741 5732 5722 5714 5707 5704 5698 5692 5685 5678 5670 5661 5653 5645 5638 5635 5630 5622 5616 5612 5610 5606 5601 5605 5610 5618 5622 5626 5628 5630 5633 5637 5641 5644 5647
5775 5771 5767 5764 5759 5752 5754 5748 5739 5725 5714 5711 5705 5698 5691 5685 5680 5674 5667 5658 5651 5644 5638 5634 5628 5620 5614 5607 5603 5604 5605 5606 5605 5606 5616 5621 5625 5628 5631 5634 5639 5642 5645
5768 5763 5760 5756 5751 5744 5746 5741 5729 5717 5712 5707 5699 5690 5683 5678 5676 5670 5662 5656 5648 5642 5638 5633 5627 5619 5612 5606 5601 5601 5601 5601 5604 5604 5607 5615 5618 5623 5627 5632 5634 5641 5645
5759 5757 5751 5747 5741 5740 5738 5728 5720 5712 5703 5697 5689 5682 5676 5673 5668 5663 5657 5651 5647 5642 5637 5633 5628 5621 5614 5609 5605 5602 5600 5600 5604 5606 5605 5611 5613 5616 5621 5628 5631 5636 5641